EW5191 Weather Reports


time (UTC)temp
C
wind
direction
speed
KPH
gust
KPH
rain 1hr
cm
rain 24hr
cm
rain mn
cm
humidity
%
barometer
mb
20260502151529 12 78 0.0 1.6 0.00 0.00 0.00 39 1019.1
20260502123009 0 259 0.0 1.6 0.00 0.00 0.00 62 1019.3
20260502121507 1 327 0.0 1.6 0.00 0.00 0.00 59 1019.3
20260502114504 2 125 0.0 0.0 0.00 0.00 0.00 57 1019.2
20260502113004 2 125 0.0 1.6 0.00 0.00 0.00 55 1019.2
20260502111503 1 125 0.0 1.6 0.00 0.00 0.00 57 1019.3
20260502110003 1 107 0.0 0.0 0.00 0.00 0.00 58 1019.4
20260502104501 1 107 0.0 1.6 0.00 0.00 0.00 60 1019.4
20260502103100 0 106 0.0 0.0 0.00 0.00 0.00 59 1019.4
20260502101611 0 224 0.0 1.6 0.00 0.00 0.00 59 1019.3
20260502070053 6 220 1.6 4.8 0.00 0.00 0.00 43 1019.9
20260502064530 6 153 4.8 9.7 0.00 0.00 0.00 41 1019.9
20260502063032 6 128 4.8 6.4 0.00 0.00 0.00 41 1019.9
20260502061526 7 117 1.6 4.8 0.00 0.00 0.00 38 1019.9
20260502060035 7 147 3.2 4.8 0.00 0.00 0.00 37 1020.0
20260502054537 7 151 4.8 6.4 0.00 0.00 0.00 39 1019.9
20260502053022 8 111 0.0 6.4 0.00 0.00 0.00 36 1019.9
20260502051522 8 158 3.2 6.4 0.00 0.00 0.00 35 1019.9
20260502050023 7 207 1.6 3.2 0.00 0.00 0.00 36 1019.9
20260502044521 9 53 0.0 1.6 0.00 0.00 0.00 35 1019.8
20260502043023 9 145 0.0 3.2 0.00 0.00 0.00 33 1019.7
20260502041531 9 220 0.0 3.2 0.00 0.00 0.00 34 1019.7
20260502040042 10 103 0.0 1.6 0.00 0.00 0.00 36 1019.5
20260502034519 11 143 0.0 1.6 0.00 0.00 0.00 29 1019.2
20260502033027 12 157 6.4 11.3 0.00 0.00 0.00 28 1019.2
20260502031521 13 125 0.0 3.2 0.00 0.00 0.00 24 1018.9
20260502030021 15 118 1.6 4.8 0.00 0.00 0.00 22 1018.8
20260502024521 15 128 0.0 1.6 0.00 0.00 0.00 22 1018.6
20260502023029 13 141 3.2 4.8 0.00 0.00 0.00 23 1018.4
20260502021521 16 5 0.0 0.0 0.00 0.00 0.00 21 1018.3
20260502020017 17 360 0.0 1.6 0.00 0.00 0.00 20 1018.3
20260502014518 18 360 0.0 1.6 0.00 0.00 0.00 21 1018.3
20260502013016 18 41 0.0 3.2 0.00 0.00 0.00 18 1018.2
20260502011515 18 20 1.6 11.3 0.00 0.00 0.00 17 1018.3
20260502010015 18 40 4.8 11.3 0.00 0.00 0.00 17 1018.4
20260502004512 18 355 6.4 16.1 0.00 0.00 0.00 17 1018.5
20260502003010 18 28 8.0 16.1 0.00 0.00 0.00 17 1018.6
20260502001510 19 342 14.5 19.3 0.00 0.00 0.00 17 1018.6
20260502000110 19 348 9.7 19.3 0.00 0.00 0.00 18 1018.7
20260501234511 19 347 3.2 16.1 0.00 0.00 0.00 18 1018.7
20260501233004 19 360 6.4 19.3 0.00 0.00 0.00 18 1018.8
20260501231502 19 360 12.9 17.7 0.00 0.00 0.00 19 1018.8
20260501230122 18 338 12.9 27.4 0.00 0.00 0.00 18 1019.0
20260501224608 19 343 16.1 24.1 0.00 0.00 0.00 18 1018.9
20260501223057 18 4 0.0 17.7 0.00 0.00 0.00 19 1019.0
20260501221655 18 48 11.3 29.0 0.00 0.00 0.00 20 1019.2
20260501220104 18 5 12.9 25.7 0.00 0.00 0.00 19 1019.2
20260501214553 18 312 1.6 19.3 0.00 0.00 0.00 19 1019.4
20260501213051 18 337 11.3 17.7 0.00 0.00 0.00 18 1019.8
20260501211546 18 282 8.0 19.3 0.00 0.00 0.00 18 1019.9
20260501210044 18 303 9.7 29.0 0.00 0.00 0.00 20 1020.0
20260501204545 17 351 9.7 20.9 0.00 0.00 0.00 20 1020.2
20260501203041 18 118 4.8 14.5 0.00 0.00 0.00 22 1020.4
20260501201542 18 62 8.0 24.1 0.00 0.00 0.00 21 1020.5
20260501200039 17 151 0.0 19.3 0.00 0.00 0.00 23 1020.7
20260501194536 17 296 6.4 17.7 0.00 0.00 0.00 24 1020.8
20260501193038 17 339 14.5 22.5 0.00 0.00 0.00 26 1021.1
20260501191533 16 355 9.7 20.9 0.00 0.00 0.00 23 1021.2
20260501190031 16 30 3.2 27.4 0.00 0.00 0.00 26 1021.2
20260501184529 16 297 3.2 20.9 0.00 0.00 0.00 26 1021.4
20260501183026 16 301 8.0 20.9 0.00 0.00 0.00 26 1021.7
20260501181526 16 285 4.8 11.3 0.00 0.00 0.00 27 1021.7
20260501180024 15 31 11.3 24.1 0.00 0.00 0.00 28 1022.0
20260501174522 15 12 3.2 11.3 0.00 0.00 0.00 31 1022.1
20260501173024 14 28 9.7 12.9 0.00 0.00 0.00 30 1022.1
20260501171523 13 160 1.6 9.7 0.00 0.00 0.00 31 1022.3
20260501170015 13 97 1.6 8.0 0.00 0.00 0.00 33 1022.5
20260501164514 12 12 1.6 11.3 0.00 0.00 0.00 34 1022.6
20260501163013 12 47 1.6 4.8 0.00 0.00 0.00 35 1022.6
20260501161510 11 38 4.8 9.7 0.00 0.00 0.00 35 1022.7